THOR ABLESTAR DEB, 660

Orbit data source: Space-Track

THOR ABLESTAR DEB, 660 is space debris in LEO originally from a launch on Thu, 29 Jun 1961 UTC launched from the Air Force Eastern Test Range (AFETR). Debris objects in space refer to the collection of defunct objects orbiting the Earth. Examples of debris include non-operational satellites, rocket bodies, and fragments generated from explosions, collisions, or faulty payload assembly.

Loading next visibility...
Identifier
660, 1961-015HM
Orbit
LEO
Last TLE update
2 days ago
Origin
Manufacturer
Unknown
Mission
Spacecraft
Bus & Motor
Unknown
Mass
Unknown
Launch date (UTC)
1961-06-29 (64 years ago)
Launch vehicle
Unknown
Launch site
Air Force Eastern Test Range (AFETR)
Object type
Payload
Rocket body
Debris
Shape & HBR
Unknown
Radar Cross Section
Small (<0.1 m²)

Expand to show TLE details & history

TLE from 2 days ago
0 THOR ABLESTAR DEB
1 00660U 61015HM  25107.80996946  .00022824  00000-0  21726-2 0  9999
2 00660  66.5045 350.8661 0018942 158.3664 270.8652 14.93264549321436
Epoch: 2025-04-17T19:26Z
Definitive object data (Epoch: 2025-04-17T19:26:21.361Z)
Latitude
59.02124°
Longitude
-100.83188°
Altitude
596.714 km
Speed
7.568 km/s
True Right ascension
02h 27m 44s
True Declination
58° 51' 57"
Sunlit
Object was in daylight at TLE epoch
Visualization TLE readout
Latitude
42.0258°
Longitude
-130.00803°
Altitude
597.272 km
Speed
7.563 km/s
Apparent Right ascension
20h 30m 01s
Apparent Declination
7° 18' 19"
Sunlit
Object is in daylight
Visualization observer readout
Local Sidereal Time
04:02:32
Azimuth
290.857° WNW
Elevation
-12.547°
Doppler factor
1
Orbital elements
Apogee altitude
599.307 km
Perigee altitude
572.924 km
Semi-major axis
6,964.252 km
Eccentricity
0.0018942
Inclination
66.5045°
RAAN
350.8661°
Arg. of periapsis
158.3664°
True anomaly
270.64816°
Mean anomaly
270.8652°
Eccentric anomaly
270.75668°
Mean motion
3.73449 °/min
BSTAR
0.0021726
Orbital period
96.4 mins
Loading maneuver chart data...
Loading SW <> Apogee altitude chart data...

THOR ABLESTAR DEB Visibility forecast

Observer location: undefined°, undefined°

Span
Click to sort rows by Start time (UTC) header in descending order
Start Az.
Max El. time (UTC)
Max El. Az.
Max El.
End time (UTC)
End Az.
7 mins2025-04-20 02:19:08.332Z338.471° N2025-04-20 02:23:08.332Z82.724° E40.737°2025-04-20 02:26:08.332Z137.58° SSE
4 mins2025-04-20 16:24:08.332Z140.781° SSE2025-04-20 16:25:08.332Z121.178° SE21.982°2025-04-20 16:28:08.332Z65.26° ENE
6 mins2025-04-20 18:02:08.332Z256.299° W2025-04-20 18:04:08.332Z296.434° NW27.218°2025-04-20 18:08:08.332Z8.982° NNE
|